Regional Weather Roundup
Issued by NWS Sterling, VA

Home | Current Version | Previous Version | Graphics & Text | Print | Product List | Glossary On
Versions: 1 2 3 4 5 6 7 8 9 10 11 12 13 14 15 16 17 18 19 20 21 22 23 24 25 26 27 28 29 30 31 32 33 34 35 36 37 38 39 40 41 42 43 44 45 46 47 48 49 50
000
ASUS41 KLWX 220211
RWRLWX

REGIONAL WEATHER ROUNDUP
NATIONAL WEATHER SERVICE BALTIMORE MD/WASHINGTON DC
900 PM EST WED FEB 21 2018

Note: "FAIR" indicates few or no clouds below 12,000 feet
with no significant weather and/or obstructions to visibility.
 TC=TEMPERATURE CELSIUS

 * =Non NWS site. Station does not report precipitation (e.g. rain,
    snow, etc.), thunder, or fog.

DCZ001-MDZ009-015-VAZ040>042-051-053>054-220300-
WASHINGTON METRO

CITY           SKY/WX    TMP DP  RH WIND       PRES   REMARKS
WASHINGTON NAT CLOUDY    69  60  73 S9        30.33R
DULLES         CLOUDY    68  63  84 W5        30.35R
ANDREWS AFB    FAIR      70  60  69 S13       30.33R
FT BELVOIR     MOCLDY    73  60  63 S3        30.33R
QUANTICO       FAIR      62  57  83 S9        30.35R
COLLEGE PARK*  MOCLDY    73  60  63 W8        30.33R
LEESBURG*      CLOUDY    70  64  83 N3        30.37R
MANASSAS*      CLOUDY    70  63  78 NW6       30.34S
GAITHERSBURG*  CLOUDY    68  62  81 NW5       30.36R

$$

MDZ006>007-011-014-220300-
BALTIMORE METRO

CITY           SKY/WX    TMP DP  RH WIND       PRES   REMARKS
BWI AIRPORT    MOCLDY    71  62  73 NW9G21    30.32R
MD SCIENCE CTR   N/A     73  63  70 MISG      30.31R
MARTIN STATE   LGT RAIN  61  57  88 NW12      30.35R
ANNAPOLIS      FAIR      59  55  87 SE7       30.32R
FORT MEADE*    MOCLDY    72  59  64 CALM      30.35R

$$

MDZ012-015-019>023-220300-
MARYLAND EASTERN SHORE

CITY           SKY/WX    TMP DP  RH WIND       PRES   REMARKS
OCEAN CITY     FAIR      55  55 100 S3        30.37R
SALISBURY      FAIR      66  61  84 SW7       30.36R
BAY BRIDGE AP* FAIR      63  57  82 SE6       30.33R
CAMBRIDGE*     PTCLDY    68  61  77 S6G12     30.35R
EASTON*        CLEAR     70  61  73 SW9       30.38R

$$

MDZ017>025-220300-
SOUTHERN MARYLAND

CITY           SKY/WX    TMP DP  RH WIND       PRES   REMARKS
PATUXENT RIVER FAIR      70  63  78 SW12      30.34S
ST INIGOES     FAIR      69  61  75 S10       30.35R
LEONARDTOWN*   FAIR      68  61  77 SW8       30.37S

$$

MDZ003>005-220300-
NORTH CENTRAL MARYLAND

CITY           SKY/WX    TMP DP  RH WIND       PRES   REMARKS
FREDERICK*     LGT RAIN  66  66 100 CALM      30.38R
HAGERSTOWN APT LGT RAIN  65  55  70 CALM      30.37R
WESTMINSTER*   CLOUDY    66  64  94 N3        30.36R

$$

MDZ501>502-220300-
WESTERN MARYLAND

CITY           SKY/WX    TMP DP  RH WIND       PRES   REMARKS
OAKLAND*       CLOUDY    50  50 100 CALM      30.43R
CUMBERLAND*    MOCLDY    61  52  72 N6        30.44R

$$

VAZ025>031-220300-
SHENANDOAH VALLEY

CITY           SKY/WX    TMP DP  RH WIND       PRES   REMARKS
WINCHESTER*    CLOUDY    64  55  72 N3        30.39R
FRONT ROYAL*   CLOUDY    66  61  82 NE5       30.36R
LURAY*         CLOUDY    63  63 100 SE3       30.36S
NEW MARKET*    MOCLDY    61  60  96 N5        30.35S
STAUNTON*      FOG       60  60  99 CALM      30.40R VSB 3/4
WAYNESBORO*    FAIR      62  60  94 CALM      30.38S

$$

WVZ021-048>050-054>055-220300-
EASTERN WEST VIRGINIA PANHANDLE

CITY           SKY/WX    TMP DP  RH WIND       PRES   REMARKS
MARTINSBURG    CLOUDY    64  56  75 NW3       30.37R
PETERSBURG*    CLOUDY    63  56  79 CALM      30.39R

$$

VAZ036>039-050-220300-
CENTRAL FOOTHILLS

CITY           SKY/WX    TMP DP  RH WIND       PRES   REMARKS
CHARLOTTESVILL FAIR      70  60  70 S6        30.35R
CULPEPER*      CLOUDY    68  60  76 CALM      30.35S
ORANGE*        CLOUDY    68  61  77 CALM      30.35S
GORDONSVILLE*  FAIR      65  62  91 CALM      30.35R
WARRENTON*     CLOUDY    72  59  65 S5        30.33S

$$

VAZ055>057-220300-
NORTH AND CENTRAL PIEDMONT

CITY           SKY/WX    TMP DP  RH WIND       PRES   REMARKS
FREDERICKSBRG* FAIR      73  63  71 S6        30.34R
STAFFORD*      MOCLDY    72  62  71 CALM      30.39R

$$

NCZ024-NYZ072-PAZ021-071-VAZ022-071-220300-
OTHER REGIONAL OBSERVATIONS

CITY           SKY/WX    TMP DP  RH WIND       PRES   REMARKS
NEW YORK CITY  LGT RAIN  62  57  83 VRB3      30.38R
PHILADELPHIA   MOCLDY    68  60  75 NW14      30.33R
PITTSBURGH     CLOUDY    43  37  79 N9        30.51R
ROANOKE        FAIR      65  59  81 NE5       30.40R
RICHMOND       FAIR      65  61  87 S9        30.38R
RALEIGH        MOCLDY    65  61  87 SE5       30.41R

$$

ANZ530>537-220300-
MARINE OBSERVATIONS

STATION/POSITION TIME  TEMP    WIND        PRES
                       AIR SEA DIR/SP/G
                 (UTC) (F)     (DEG/KT/KT) (MB)
THOMAS PT LIGHT  NOT AVBL
BALT KEY BRIDGE  0136   63     110/  2/  3 1026.6R
COVE POINT       0136   70     220/ 16/ 20 1027.9R
LEWISETTA        0136   69 51  240/ 11/ 14 1028.2R
SOLOMONS ISLAND  0136   65 43  220/ 14/ 19 1027.2R
PINEY POINT      0148          220/ 12/ 13   N/A

$$




USA.gov is the U.S. government's official web portal to all federal, state and local government web resources and services.